| time (UTC) | temp C | wind direction | speed KPH | gust KPH | rain 1hr cm | rain 24hr cm | rain mn cm | humidity % | barometer mb |
| 20260505211536 | 26 | 167 | 9.7 | 22.5 | 0.00 | 0.00 | 0.00 | 41 | 1013.7 |
| 20260505210035 | 26 | 266 | 1.6 | 12.9 | 0.00 | 0.00 | 0.00 | 41 | 1013.9 |
| 20260505204542 | 26 | 134 | 6.4 | 19.3 | 0.00 | 0.00 | 0.00 | 41 | 1014.0 |
| 20260505203047 | 26 | 165 | 4.8 | 16.1 | 0.00 | 0.00 | 0.00 | 41 | 1014.0 |
| 20260505201539 | 26 | 282 | 6.4 | 17.7 | 0.00 | 0.00 | 0.00 | 41 | 1014.5 |
| 20260505200039 | 26 | 161 | 8.0 | 16.1 | 0.00 | 0.00 | 0.00 | 40 | 1014.4 |
| 20260505194544 | 26 | 257 | 3.2 | 14.5 | 0.00 | 0.00 | 0.00 | 44 | 1014.8 |
| 20260505193037 | 25 | 184 | 4.8 | 17.7 | 0.00 | 0.00 | 0.00 | 42 | 1015.1 |
| 20260505191541 | 25 | 258 | 4.8 | 24.1 | 0.00 | 0.00 | 0.00 | 40 | 1015.3 |
| 20260505190039 | 25 | 271 | 8.0 | 27.4 | 0.00 | 0.00 | 0.00 | 40 | 1015.5 |
| 20260505184536 | 25 | 252 | 6.4 | 19.3 | 0.00 | 0.00 | 0.00 | 43 | 1015.7 |
| 20260505183037 | 25 | 232 | 6.4 | 17.7 | 0.00 | 0.00 | 0.00 | 43 | 1015.8 |
| 20260505181535 | 25 | 254 | 3.2 | 20.9 | 0.00 | 0.00 | 0.00 | 44 | 1015.9 |
| 20260505174555 | 25 | 216 | 8.0 | 24.1 | 0.00 | 0.00 | 0.00 | 44 | 1016.5 |
| 20260505173043 | 25 | 213 | 4.8 | 19.3 | 0.00 | 0.00 | 0.00 | 44 | 1016.7 |
| 20260505171535 | 25 | 249 | 6.4 | 20.9 | 0.00 | 0.00 | 0.00 | 45 | 1017.0 |
| 20260505170035 | 23 | 257 | 3.2 | 20.9 | 0.00 | 0.00 | 0.00 | 47 | 1017.0 |
| 20260505164545 | 23 | 122 | 6.4 | 16.1 | 0.00 | 0.00 | 0.00 | 45 | 1016.7 |
| 20260505163037 | 23 | 269 | 4.8 | 17.7 | 0.00 | 0.00 | 0.00 | 52 | 1016.7 |
| 20260505161538 | 23 | 267 | 4.8 | 16.1 | 0.00 | 0.00 | 0.00 | 52 | 1017.1 |
| 20260505153035 | 21 | 236 | 3.2 | 12.9 | 0.00 | 0.00 | 0.00 | 56 | 1017.3 |
| 20260505151540 | 21 | 165 | 1.6 | 14.5 | 0.00 | 0.00 | 0.00 | 55 | 1017.5 |
| 20260505124540 | 11 | 0 | 0.0 | 0.0 | 0.00 | 0.00 | 0.00 | 94 | 1016.9 |
| 20260505123037 | 10 | 0 | 0.0 | 0.0 | 0.00 | 0.00 | 0.00 | 95 | 1017.1 |
| 20260505121536 | 10 | 0 | 0.0 | 0.0 | 0.00 | 0.00 | 0.00 | 95 | 1017.0 |
| 20260505120038 | 8 | 0 | 0.0 | 0.0 | 0.00 | 0.00 | 0.00 | 95 | 1016.6 |
| 20260505114535 | 7 | 0 | 0.0 | 0.0 | 0.00 | 0.00 | 0.00 | 94 | 1016.4 |
| 20260505113041 | 7 | 0 | 0.0 | 1.6 | 0.00 | 0.00 | 0.00 | 94 | 1016.4 |
| 20260505111538 | 7 | 164 | 0.0 | 3.2 | 0.00 | 0.00 | 0.00 | 94 | 1016.3 |
| 20260505101541 | 7 | 142 | 0.0 | 11.3 | 0.00 | 0.00 | 0.00 | 94 | 1016.1 |
| 20260505100038 | 7 | 148 | 1.6 | 3.2 | 0.00 | 0.00 | 0.00 | 93 | 1016.0 |
| 20260505094537 | 7 | 0 | 0.0 | 3.2 | 0.00 | 0.00 | 0.00 | 93 | 1015.9 |
| 20260505093039 | 7 | 0 | 0.0 | 8.0 | 0.00 | 0.00 | 0.00 | 93 | 1016.1 |
| 20260505091543 | 7 | 0 | 0.0 | 3.2 | 0.00 | 0.00 | 0.00 | 93 | 1015.8 |
| 20260505090034 | 7 | 0 | 0.0 | 6.4 | 0.00 | 0.00 | 0.00 | 93 | 1015.9 |
| 20260505084538 | 8 | 306 | 1.6 | 6.4 | 0.00 | 0.00 | 0.00 | 93 | 1015.8 |
| 20260505083036 | 8 | 0 | 0.0 | 9.7 | 0.00 | 0.00 | 0.00 | 93 | 1015.8 |
| 20260505081539 | 8 | 176 | 4.8 | 9.7 | 0.00 | 0.00 | 0.00 | 92 | 1015.8 |
| 20260505080035 | 8 | 0 | 0.0 | 3.2 | 0.00 | 0.00 | 0.00 | 92 | 1015.4 |
| 20260505074537 | 8 | 0 | 0.0 | 0.0 | 0.00 | 0.00 | 0.00 | 92 | 1015.4 |
| 20260505073046 | 8 | 194 | 0.0 | 1.6 | 0.00 | 0.00 | 0.00 | 92 | 1015.4 |
| 20260505071550 | 8 | 194 | 1.6 | 3.2 | 0.00 | 0.00 | 0.00 | 92 | 1015.4 |
| 20260505070041 | 8 | 0 | 0.0 | 0.0 | 0.00 | 0.00 | 0.00 | 91 | 1015.4 |
| 20260505064535 | 8 | 0 | 0.0 | 0.0 | 0.00 | 0.00 | 0.00 | 91 | 1015.7 |
| 20260505063047 | 9 | 0 | 0.0 | 0.0 | 0.00 | 0.00 | 0.00 | 91 | 1015.7 |
| 20260505061603 | 9 | 0 | 0.0 | 0.0 | 0.00 | 0.00 | 0.00 | 91 | 1015.8 |
| 20260505060039 | 10 | 0 | 0.0 | 0.0 | 0.00 | 0.00 | 0.00 | 90 | 1015.8 |
| 20260505054538 | 10 | 0 | 0.0 | 0.0 | 0.00 | 0.00 | 0.00 | 90 | 1015.7 |
| 20260505053041 | 10 | 0 | 0.0 | 0.0 | 0.00 | 0.00 | 0.00 | 89 | 1015.8 |
| 20260505051556 | 10 | 0 | 0.0 | 0.0 | 0.00 | 0.00 | 0.00 | 89 | 1015.7 |
| 20260505041537 | 11 | 0 | 0.0 | 3.2 | 0.00 | 0.00 | 0.00 | 87 | 1015.7 |
| 20260505040039 | 12 | 192 | 0.0 | 3.2 | 0.00 | 0.00 | 0.00 | 85 | 1015.7 |
| 20260505034536 | 12 | 0 | 0.0 | 3.2 | 0.00 | 0.00 | 0.00 | 84 | 1015.8 |
| 20260505033037 | 12 | 0 | 0.0 | 1.6 | 0.00 | 0.00 | 0.00 | 81 | 1015.9 |
| 20260505031539 | 13 | 191 | 1.6 | 4.8 | 0.00 | 0.00 | 0.00 | 80 | 1015.8 |
| 20260505030037 | 13 | 0 | 0.0 | 0.0 | 0.00 | 0.00 | 0.00 | 79 | 1015.8 |
| 20260505024541 | 14 | 0 | 0.0 | 0.0 | 0.00 | 0.00 | 0.00 | 78 | 1015.9 |
| 20260505023035 | 14 | 0 | 0.0 | 0.0 | 0.00 | 0.00 | 0.00 | 76 | 1015.9 |
| 20260505021537 | 15 | 0 | 0.0 | 0.0 | 0.00 | 0.00 | 0.00 | 75 | 1015.6 |
| 20260505020037 | 15 | 0 | 0.0 | 0.0 | 0.00 | 0.00 | 0.00 | 73 | 1015.5 |
| 20260505014537 | 16 | 0 | 0.0 | 0.0 | 0.00 | 0.00 | 0.00 | 72 | 1015.6 |
| 20260505013036 | 16 | 0 | 0.0 | 0.0 | 0.00 | 0.00 | 0.00 | 70 | 1015.3 |
| 20260505011534 | 17 | 0 | 0.0 | 0.0 | 0.00 | 0.00 | 0.00 | 68 | 1015.2 |
| 20260505010038 | 17 | 0 | 0.0 | 0.0 | 0.00 | 0.00 | 0.00 | 67 | 1015.1 |
| 20260505004536 | 18 | 0 | 0.0 | 0.0 | 0.00 | 0.00 | 0.00 | 67 | 1015.0 |
| 20260505003035 | 20 | 0 | 0.0 | 0.0 | 0.00 | 0.00 | 0.00 | 64 | 1015.0 |
| 20260505001535 | 20 | 0 | 0.0 | 3.2 | 0.00 | 0.00 | 0.00 | 61 | 1014.9 |
| 20260505000043 | 20 | 0 | 0.0 | 1.6 | 0.00 | 0.00 | 0.00 | 59 | 1015.0 |
| 20260504234539 | 21 | 192 | 0.0 | 1.6 | 0.00 | 0.00 | 0.00 | 62 | 1014.7 |
| 20260504233042 | 22 | 0 | 0.0 | 3.2 | 0.00 | 0.00 | 0.00 | 50 | 1014.6 |
| 20260504231542 | 22 | 0 | 0.0 | 4.8 | 0.00 | 0.00 | 0.00 | 47 | 1014.4 |
| 20260504230046 | 23 | 167 | 0.0 | 6.4 | 0.00 | 0.00 | 0.00 | 45 | 1014.4 |
| 20260504224534 | 23 | 136 | 1.6 | 11.3 | 0.00 | 0.00 | 0.00 | 44 | 1014.4 |
| 20260504223038 | 24 | 156 | 0.0 | 8.0 | 0.00 | 0.00 | 0.00 | 41 | 1014.5 |
| 20260504221535 | 23 | 153 | 3.2 | 14.5 | 0.00 | 0.00 | 0.00 | 42 | 1014.6 |
| 20260504220038 | 25 | 225 | 3.2 | 11.3 | 0.00 | 0.00 | 0.00 | 40 | 1014.6 |
| 20260504214535 | 25 | 125 | 1.6 | 4.8 | 0.00 | 0.00 | 0.00 | 41 | 1014.5 |
| 20260504213041 | 25 | 129 | 1.6 | 9.7 | 0.00 | 0.00 | 0.00 | 39 | 1014.6 |